TimeEDT,TemperatureF,Dew PointF,Humidity,Sea Level PressureIn,VisibilityMPH,Wind Direction,Wind SpeedMPH,Gust SpeedMPH,PrecipitationIn,Events,Conditions,WindDirDegrees,DateUTC
12:52 AM,32.0,25.0,75,30.21,10.0,Calm,Calm,-,N/A,,Clear,0,2014-04-06 04:52:00
1:52 AM,30.0,25.0,82,30.20,10.0,Calm,Calm,-,N/A,,Clear,0,2014-04-06 05:52:00
2:52 AM,28.9,24.1,82,30.20,10.0,Calm,Calm,-,N/A,,Clear,0,2014-04-06 06:52:00
3:52 AM,28.0,23.0,81,30.19,10.0,Calm,Calm,-,N/A,,Clear,0,2014-04-06 07:52:00
4:52 AM,26.1,21.9,84,30.19,10.0,Calm,Calm,-,N/A,,Clear,0,2014-04-06 08:52:00
5:52 AM,25.0,21.0,85,30.20,10.0,Calm,Calm,-,N/A,,Clear,0,2014-04-06 09:52:00
6:52 AM,24.1,19.9,84,30.20,10.0,Calm,Calm,-,N/A,,Clear,0,2014-04-06 10:52:00
7:52 AM,25.0,23.0,92,30.22,10.0,Calm,Calm,-,N/A,,Clear,0,2014-04-06 11:52:00
8:52 AM,35.1,25.0,67,30.23,10.0,Calm,Calm,-,N/A,,Clear,0,2014-04-06 12:52:00
9:52 AM,39.9,25.0,55,30.23,10.0,East,3.5,-,N/A,,Clear,90,2014-04-06 13:52:00
10:52 AM,46.0,23.0,40,30.22,10.0,Calm,Calm,-,N/A,,Clear,0,2014-04-06 14:52:00
11:52 AM,48.9,19.9,32,30.20,10.0,SW,5.8,-,N/A,,Clear,220,2014-04-06 15:52:00
12:52 PM,50.0,21.0,32,30.18,10.0,SSW,5.8,-,N/A,,Clear,210,2014-04-06 16:52:00
1:52 PM,51.1,21.9,32,30.15,10.0,Calm,Calm,-,N/A,,Clear,0,2014-04-06 17:52:00
2:52 PM,51.1,24.1,35,30.12,10.0,Variable,3.5,-,N/A,,Clear,0,2014-04-06 18:52:00
3:52 PM,51.1,25.0,36,30.09,10.0,Calm,Calm,-,N/A,,Clear,0,2014-04-06 19:52:00
4:52 PM,52.0,26.1,37,30.06,10.0,East,5.8,-,N/A,,Clear,100,2014-04-06 20:52:00
5:52 PM,51.1,28.9,43,30.06,10.0,East,8.1,-,N/A,,Clear,100,2014-04-06 21:52:00
6:52 PM,48.9,28.0,44,30.09,10.0,East,5.8,-,N/A,,Clear,100,2014-04-06 22:52:00
7:52 PM,46.0,28.0,50,30.05,10.0,ENE,6.9,-,N/A,,Clear,70,2014-04-06 23:52:00
8:52 PM,44.1,27.0,51,30.05,10.0,East,6.9,-,N/A,,Clear,80,2014-04-07 00:52:00
9:52 PM,39.9,26.1,58,30.06,10.0,East,6.9,-,N/A,,Clear,90,2014-04-07 01:52:00
10:52 PM,39.0,24.1,55,30.04,10.0,East,6.9,-,N/A,,Clear,80,2014-04-07 02:52:00
11:52 PM,37.0,24.1,59,30.02,10.0,East,6.9,-,N/A,,Clear,80,2014-04-07 03:52:00